User: anonymous   Login
Location: Oshawa
(43.9000°N, 78.8670°W)
Time: 18:17:16
(UTC-04:00)
Language:

Altair - Orbit

View from above orbital plane
View from above orbital plane
View from above satellite
View from above satellite

Ground track
Ground track

The orbit data is extracted from the following two-line orbital elements,

1    50U 60009B   17114.94104415 -.00000141 +00000-0 -51968-3 0  9992
2    50 047.2301 088.9382 0113009 139.9900 220.9281 12.20099750529877
Epoch (UTC): 24 April 2017 22:35:06
Eccentricity: 0.0113009
inclination: 47.2301°
perigee height: 1502 km
apogee height: 1682 km
right ascension of ascending node: 88.9382°
argument of perigee: 139.9900°
revolutions per day: 12.20099750
mean anomaly at epoch: 220.9281°
orbit number at epoch: 52987

The dashed part of the orbit path shows where the satellite is in the earth's shadow,  

DLR